This is the latest recevied weather packets stored in our database for station/object DC1MPP-9. If no packets are shown the sender has not sent any weather packets the latest 10 day(s).
| Time | Temp. | Humidity | Pressure | Rain* | Wind** | Luminosity | Snow |
|---|---|---|---|---|---|---|---|
| 1787924213 | 25° C | 90% | 959 hPa | - | - | - | - |
| 1787923731 | 25.56° C | 82% | 958 hPa | - | - | - | - |
| 1787923249 | 26.11° C | 85% | 958 hPa | - | - | - | - |
| 1787922767 | 26.11° C | 95% | 958 hPa | - | - | - | - |
| 1787922526 | 26.11° C | 96% | 958 hPa | - | - | - | - |
| 1787922285 | 26.11° C | 95% | 958 hPa | - | - | - | - |
| 1787921803 | 26.11° C | 98% | 958 hPa | - | - | - | - |
| 1787921320 | 26.11° C | 97% | 958 hPa | - | - | - | - |
| 1787921079 | 26.11° C | 99% | 958 hPa | - | - | - | - |
| 1787920838 | 26.11° C | 95% | 958 hPa | - | - | - | - |
| 1787920597 | 26.67° C | 10% | - | - | - | - | - |
| 1787920356 | 26.11° C | 10% | - | - | - | - | - |
| 1787920115 | 26.67° C | 97% | 957 hPa | - | - | - | - |
| 1787919874 | 26.67° C | 91% | 958 hPa | - | - | - | - |
| 1787919633 | 26.67° C | 92% | 958 hPa | - | - | - | - |
| 1787919151 | 26.67° C | 90% | 958 hPa | - | - | - | - |
| 1787918910 | 26.67° C | 90% | 957 hPa | - | - | - | - |
| 1787918669 | 26.67° C | 92% | 957 hPa | - | - | - | - |
| 1787917945 | 27.22° C | 83% | 957 hPa | - | - | - | - |
| 1787917704 | 26.67° C | 84% | 957 hPa | - | - | - | - |
| 1787917463 | 27.22° C | 82% | 957 hPa | - | - | - | - |
| 1787916981 | 26.67° C | 90% | 957 hPa | - | - | - | - |
| 1787916740 | 27.22° C | 89% | 957 hPa | - | - | - | - |
| 1787916017 | 27.22° C | 91% | 957 hPa | - | - | - | - |
| 1787915776 | 27.22° C | 91% | 957 hPa | - | - | - | - |
* Rain since midnight (hover to see other rain measurements)
** Current wind speed in m/s (hover to see current wind gust speed)